N606NK KBWI-KMZJ

Flight info

Callsign N606NK
Flight time 4h 44m
Altitude 28000
Route FOXHL1 OTTTO Q80 FAREV RAMRD Q68 LITTR FEWWW CIKAN BGS SUMMY MOLLY SSO HOTTT SECBO
Aircraft A320/M-DOV/C

Departure

Time 2026-05-06 21:47
Airport Baltimore/Washington International Thurgood Marshall Airport (KBWI)

Arrival

Time 2026-05-07 02:31
Airport Pinal Airpark (KMZJ)
Time Latitude Longitude Altitude Speed Heading
2026-05-06 21:29 39.18529 -76.65951 141 ft 0 kts 199°
2026-05-06 21:43 39.18528 -76.65952 141 ft 1 kts 199°
2026-05-06 21:43 39.18509 -76.65966 145 ft 6 kts 215°
2026-05-06 21:43 39.18460 -76.65956 139 ft 9 kts 144°
2026-05-06 21:43 39.18426 -76.65991 137 ft 9 kts 237°
2026-05-06 21:44 39.18381 -76.66071 138 ft 12 kts 231°
2026-05-06 21:44 39.18311 -76.66085 141 ft 11 kts 154°
2026-05-06 21:44 39.18236 -76.66046 147 ft 11 kts 157°
2026-05-06 21:44 39.18161 -76.66005 150 ft 13 kts 157°
2026-05-06 21:45 39.18062 -76.65983 153 ft 15 kts 209°
2026-05-06 21:45 39.17952 -76.65979 148 ft 22 kts 147°
2026-05-06 21:45 39.17807 -76.65864 147 ft 27 kts 148°
2026-05-06 21:45 39.17636 -76.65726 146 ft 30 kts 146°
2026-05-06 21:46 39.17478 -76.65661 143 ft 20 kts 184°
2026-05-06 21:46 39.17415 -76.65565 142 ft 16 kts 111°
2026-05-06 21:46 39.17311 -76.65518 141 ft 16 kts 185°
2026-05-06 21:46 39.17281 -76.65545 140 ft 2 kts 276°
2026-05-06 21:47 39.17288 -76.65652 141 ft 40 kts 274°
2026-05-06 21:47 39.17325 -76.66326 150 ft 107 kts 274°
2026-05-06 21:47 39.17394 -76.67523 155 ft 158 kts 273°
2026-05-06 21:47 39.17483 -76.68955 785 ft 156 kts 271°
2026-05-06 21:48 39.17564 -76.70339 1590 ft 155 kts 269°
2026-05-06 21:48 39.17633 -76.71796 2084 ft 173 kts 270°
2026-05-06 21:48 39.17709 -76.73452 2512 ft 197 kts 270°
2026-05-06 21:48 39.17804 -76.75321 2955 ft 221 kts 274°
2026-05-06 21:49 39.18088 -76.77377 3499 ft 242 kts 280°
2026-05-06 21:49 39.18494 -76.79517 4385 ft 248 kts 282°
2026-05-06 21:49 39.18937 -76.81682 5366 ft 251 kts 282°
2026-05-06 21:49 39.19386 -76.83855 6431 ft 249 kts 282°
2026-05-06 21:50 39.19833 -76.86013 7408 ft 249 kts 281°
2026-05-06 21:50 39.20271 -76.88173 8314 ft 250 kts 280°
2026-05-06 21:50 39.20704 -76.90373 9168 ft 256 kts 281°
2026-05-06 21:50 39.21141 -76.92605 10056 ft 258 kts 280°
2026-05-06 21:51 39.21590 -76.94917 10541 ft 277 kts 280°
2026-05-06 21:51 39.21972 -76.97444 10807 ft 298 kts 273°
2026-05-06 21:51 39.22030 -77.00170 11364 ft 308 kts 269°
2026-05-06 21:51 39.22068 -77.02953 12098 ft 312 kts 270°
2026-05-06 21:52 39.22111 -77.05758 12870 ft 314 kts 270°
2026-05-06 21:52 39.22155 -77.08579 13644 ft 316 kts 270°
2026-05-06 21:52 39.22039 -77.11417 14332 ft 319 kts 260°
2026-05-06 21:52 39.21382 -77.14146 14997 ft 322 kts 248°
2026-05-06 21:53 39.20173 -77.16613 15672 ft 331 kts 235°
2026-05-06 21:53 39.18591 -77.18762 16366 ft 336 kts 232°
2026-05-06 21:53 39.16952 -77.20926 17056 ft 339 kts 232°
2026-05-06 21:53 39.15295 -77.23097 17741 ft 340 kts 232°
2026-05-06 21:54 39.13625 -77.25283 18280 ft 347 kts 232°
2026-05-06 21:54 39.11915 -77.27538 18714 ft 355 kts 232°
2026-05-06 21:54 39.10185 -77.29824 19319 ft 357 kts 232°
2026-05-06 21:54 39.08447 -77.32120 19965 ft 359 kts 232°
2026-05-06 21:55 39.06703 -77.34431 20579 ft 360 kts 234°
2026-05-06 21:55 39.05203 -77.36961 21169 ft 353 kts 244°
2026-05-06 21:55 39.04125 -77.39774 21744 ft 349 kts 253°
2026-05-06 21:55 39.03412 -77.42751 22287 ft 349 kts 257°
2026-05-06 21:56 39.02736 -77.45755 22840 ft 350 kts 257°
2026-05-06 21:56 39.02053 -77.48771 23389 ft 351 kts 257°
2026-05-06 21:56 39.01362 -77.51790 23869 ft 353 kts 256°
2026-05-06 21:56 39.00667 -77.54819 24311 ft 354 kts 256°
2026-05-06 21:57 38.99970 -77.57858 24761 ft 355 kts 256°
2026-05-06 21:57 38.99271 -77.60912 25170 ft 356 kts 256°
2026-05-06 21:57 38.98572 -77.63972 25559 ft 358 kts 256°
2026-05-06 21:57 38.97868 -77.67052 25952 ft 360 kts 256°
2026-05-06 21:58 38.97161 -77.70138 26348 ft 361 kts 256°
2026-05-06 21:58 38.96447 -77.73242 26748 ft 362 kts 256°
2026-05-06 21:58 38.95730 -77.76354 27142 ft 364 kts 256°
2026-05-06 21:58 38.95012 -77.79478 27529 ft 365 kts 256°
2026-05-06 21:59 38.94290 -77.82612 27808 ft 366 kts 256°
2026-05-06 21:59 38.93567 -77.85743 27853 ft 365 kts 256°
2026-05-06 21:59 38.92836 -77.88893 27842 ft 372 kts 256°
2026-05-06 21:59 38.92088 -77.92113 27845 ft 380 kts 256°
2026-05-06 22:00 38.91329 -77.95376 27841 ft 382 kts 256°
2026-05-06 22:00 38.90567 -77.98647 27841 ft 383 kts 256°
2026-05-06 22:00 38.89803 -78.01917 27841 ft 382 kts 256°
2026-05-06 22:00 38.89039 -78.05188 27840 ft 383 kts 256°
2026-05-06 22:01 38.88273 -78.08460 27839 ft 383 kts 255°
2026-05-06 22:01 38.87504 -78.11726 27843 ft 382 kts 255°
2026-05-06 22:01 38.86735 -78.14991 27836 ft 382 kts 255°
2026-05-06 22:01 38.85971 -78.18249 27842 ft 382 kts 256°
2026-05-06 22:02 38.85472 -78.21581 27843 ft 380 kts 265°
2026-05-06 22:02 38.85422 -78.24972 27845 ft 380 kts 269°
2026-05-06 22:02 38.85416 -78.28368 27844 ft 380 kts 268°
2026-05-06 22:02 38.85402 -78.31760 27848 ft 380 kts 268°
2026-05-06 22:03 38.85383 -78.35147 27849 ft 380 kts 268°
2026-05-06 22:03 38.85185 -78.38524 27847 ft 380 kts 261°
2026-05-06 22:03 38.84648 -78.41844 27850 ft 381 kts 259°
2026-05-06 22:03 38.84100 -78.45167 27847 ft 381 kts 259°
2026-05-06 22:04 38.83556 -78.48483 27854 ft 380 kts 259°
2026-05-06 22:04 38.83014 -78.51799 27854 ft 380 kts 259°
2026-05-06 22:04 38.82471 -78.55108 27857 ft 379 kts 259°
2026-05-06 22:04 38.81925 -78.58413 27857 ft 379 kts 259°
2026-05-06 22:05 38.81375 -78.61716 27863 ft 379 kts 259°
2026-05-06 22:05 38.80828 -78.65016 27856 ft 380 kts 259°
2026-05-06 22:05 38.80280 -78.68331 27855 ft 380 kts 259°
2026-05-06 22:05 38.79730 -78.71647 27855 ft 380 kts 259°
2026-05-06 22:06 38.79181 -78.74955 27856 ft 380 kts 259°
2026-05-06 22:06 38.78629 -78.78269 27854 ft 380 kts 259°
2026-05-06 22:06 38.78075 -78.81585 27852 ft 381 kts 259°
2026-05-06 22:06 38.77519 -78.84904 27851 ft 381 kts 259°
2026-05-06 22:07 38.76964 -78.88221 27860 ft 381 kts 259°
2026-05-06 22:07 38.76407 -78.91540 27855 ft 381 kts 259°
2026-05-06 22:07 38.75849 -78.94859 27852 ft 381 kts 259°
2026-05-06 22:07 38.75290 -78.98181 27853 ft 381 kts 259°
2026-05-06 22:08 38.74728 -79.01501 27854 ft 381 kts 259°
2026-05-06 22:08 38.74167 -79.04816 27854 ft 381 kts 259°
2026-05-06 22:08 38.73606 -79.08136 27855 ft 381 kts 259°
2026-05-06 22:08 38.73042 -79.11449 27850 ft 381 kts 258°
2026-05-06 22:09 38.72475 -79.14771 27854 ft 381 kts 258°
2026-05-06 22:09 38.71908 -79.18088 27858 ft 382 kts 258°
2026-05-06 22:09 38.71340 -79.21408 27861 ft 382 kts 258°
2026-05-06 22:09 38.70772 -79.24725 27866 ft 382 kts 258°
2026-05-06 22:10 38.70211 -79.28050 27872 ft 382 kts 259°
2026-05-06 22:10 38.69664 -79.31381 27873 ft 382 kts 259°
2026-05-06 22:10 38.69126 -79.34712 27878 ft 382 kts 259°
2026-05-06 22:10 38.68585 -79.38043 27881 ft 382 kts 259°
2026-05-06 22:11 38.68041 -79.41370 27876 ft 381 kts 258°
2026-05-06 22:11 38.67492 -79.44689 27884 ft 381 kts 258°
2026-05-06 22:11 38.66940 -79.48008 27885 ft 382 kts 258°
2026-05-06 22:11 38.66383 -79.51329 27884 ft 381 kts 258°
2026-05-06 22:12 38.65828 -79.54646 27893 ft 381 kts 258°
2026-05-06 22:12 38.65273 -79.57967 27902 ft 382 kts 258°
2026-05-06 22:12 38.64717 -79.61297 27910 ft 382 kts 258°
2026-05-06 22:12 38.64163 -79.64617 27912 ft 382 kts 258°
2026-05-06 22:13 38.63608 -79.67941 27918 ft 382 kts 258°
2026-05-06 22:13 38.63047 -79.71261 27924 ft 382 kts 258°
2026-05-06 22:13 38.62465 -79.74577 27927 ft 382 kts 258°
2026-05-06 22:13 38.61877 -79.77841 27931 ft 382 kts 257°
2026-05-06 22:14 38.61470 -79.80075 27932 ft 382 kts 258°
2026-05-06 22:14 38.60673 -79.84446 27937 ft 381 kts 258°
2026-05-06 22:14 38.60073 -79.87751 27937 ft 381 kts 258°
2026-05-06 22:14 38.59474 -79.91056 27936 ft 381 kts 258°
2026-05-06 22:15 38.58877 -79.94357 27947 ft 381 kts 258°
2026-05-06 22:15 38.58473 -79.96588 27941 ft 381 kts 258°
2026-05-06 22:15 38.57876 -79.99891 27934 ft 381 kts 258°
2026-05-06 22:15 38.57288 -80.03149 27933 ft 381 kts 258°
2026-05-06 22:16 38.56684 -80.06489 27933 ft 381 kts 258°
2026-05-06 22:16 38.56083 -80.09787 27940 ft 381 kts 258°
2026-05-06 22:16 38.55482 -80.13086 27936 ft 382 kts 258°
2026-05-06 22:16 38.54877 -80.16390 27932 ft 382 kts 258°
2026-05-06 22:17 38.54268 -80.19688 27930 ft 382 kts 258°
2026-05-06 22:17 38.53664 -80.22947 27935 ft 382 kts 258°
2026-05-06 22:17 38.53041 -80.26285 27933 ft 381 kts 258°
2026-05-06 22:17 38.52425 -80.29577 27929 ft 381 kts 257°
2026-05-06 22:18 38.51816 -80.32831 27938 ft 382 kts 258°
2026-05-06 22:18 38.51199 -80.36134 27940 ft 382 kts 258°
2026-05-06 22:18 38.50582 -80.39430 27941 ft 382 kts 257°
2026-05-06 22:18 38.49966 -80.42726 27940 ft 382 kts 258°
2026-05-06 22:19 38.49349 -80.46030 27941 ft 383 kts 258°
2026-05-06 22:19 38.48730 -80.49337 27939 ft 383 kts 257°
2026-05-06 22:19 38.48109 -80.52643 27938 ft 384 kts 257°
2026-05-06 22:19 38.47486 -80.55960 27936 ft 384 kts 257°
2026-05-06 22:20 38.46861 -80.59277 27943 ft 384 kts 257°
2026-05-06 22:20 38.46237 -80.62591 27943 ft 384 kts 257°
2026-05-06 22:20 38.45613 -80.65902 27941 ft 384 kts 257°
2026-05-06 22:20 38.44986 -80.69216 27943 ft 384 kts 257°
2026-05-06 22:21 38.44359 -80.72526 27947 ft 384 kts 257°
2026-05-06 22:21 38.43726 -80.75842 27948 ft 385 kts 257°
2026-05-06 22:21 38.43089 -80.79158 27945 ft 385 kts 257°
2026-05-06 22:21 38.42454 -80.82473 27947 ft 385 kts 257°
2026-05-06 22:22 38.41822 -80.85794 27946 ft 385 kts 257°
2026-05-06 22:22 38.41190 -80.89112 27942 ft 385 kts 257°
2026-05-06 22:22 38.40555 -80.92431 27947 ft 385 kts 257°
2026-05-06 22:22 38.39914 -80.95752 27946 ft 385 kts 257°
2026-05-06 22:23 38.39273 -80.99065 27948 ft 385 kts 257°
2026-05-06 22:23 38.38631 -81.02380 27947 ft 386 kts 257°
2026-05-06 22:23 38.37989 -81.05701 27950 ft 386 kts 257°
2026-05-06 22:23 38.37350 -81.09020 27948 ft 386 kts 257°
2026-05-06 22:24 38.36668 -81.12332 27950 ft 386 kts 256°
2026-05-06 22:24 38.35909 -81.15614 27948 ft 387 kts 255°
2026-05-06 22:24 38.35103 -81.18883 27946 ft 387 kts 254°
2026-05-06 22:24 38.34280 -81.22148 27946 ft 387 kts 254°
2026-05-06 22:25 38.33457 -81.25413 27947 ft 388 kts 254°
2026-05-06 22:25 38.32637 -81.28686 27949 ft 388 kts 254°
2026-05-06 22:25 38.31828 -81.31961 27945 ft 388 kts 255°
2026-05-06 22:25 38.31029 -81.35243 27945 ft 388 kts 255°
2026-05-06 22:26 38.30236 -81.38523 27950 ft 388 kts 255°
2026-05-06 22:26 38.29443 -81.41810 27949 ft 388 kts 255°
2026-05-06 22:26 38.28646 -81.45097 27950 ft 389 kts 255°
2026-05-06 22:26 38.27847 -81.48381 27948 ft 389 kts 254°
2026-05-06 22:27 38.27043 -81.51666 27953 ft 389 kts 255°
2026-05-06 22:27 38.26235 -81.54955 27948 ft 389 kts 255°
2026-05-06 22:27 38.25424 -81.58240 27941 ft 389 kts 254°
2026-05-06 22:27 38.24609 -81.61527 27944 ft 390 kts 255°
2026-05-06 22:28 38.23805 -81.64774 27950 ft 390 kts 255°
2026-05-06 22:28 38.22993 -81.68064 27951 ft 390 kts 255°
2026-05-06 22:28 38.22182 -81.71361 27953 ft 391 kts 254°
2026-05-06 22:28 38.21332 -81.74643 27949 ft 391 kts 253°
2026-05-06 22:29 38.20429 -81.77918 27946 ft 392 kts 253°
2026-05-06 22:29 38.19495 -81.81186 27951 ft 393 kts 252°
2026-05-06 22:29 38.18554 -81.84444 27952 ft 393 kts 252°
2026-05-06 22:29 38.17614 -81.87707 27952 ft 393 kts 252°
2026-05-06 22:30 38.16680 -81.90974 27955 ft 393 kts 253°
2026-05-06 22:30 38.15754 -81.94242 27953 ft 393 kts 253°
2026-05-06 22:30 38.14834 -81.97518 27956 ft 394 kts 253°
2026-05-06 22:30 38.13916 -82.00794 27957 ft 394 kts 253°
2026-05-06 22:31 38.12995 -82.04074 27955 ft 394 kts 253°
2026-05-06 22:31 38.12072 -82.07354 27957 ft 394 kts 253°
2026-05-06 22:31 38.11147 -82.10630 27956 ft 394 kts 253°
2026-05-06 22:31 38.10219 -82.13911 27959 ft 395 kts 253°
2026-05-06 22:32 38.09290 -82.17187 27959 ft 395 kts 253°
2026-05-06 22:32 38.08354 -82.20473 27960 ft 395 kts 253°
2026-05-06 22:32 38.07420 -82.23751 27962 ft 395 kts 253°
2026-05-06 22:32 38.06483 -82.27037 27966 ft 396 kts 253°
2026-05-06 22:33 38.05547 -82.30326 27964 ft 396 kts 253°
2026-05-06 22:33 38.04611 -82.33607 27971 ft 396 kts 253°
2026-05-06 22:33 38.03671 -82.36892 27970 ft 396 kts 253°
2026-05-06 22:33 38.02729 -82.40177 27975 ft 396 kts 253°
2026-05-06 22:34 38.01789 -82.43456 27976 ft 396 kts 252°
2026-05-06 22:34 38.00848 -82.46738 27978 ft 396 kts 253°
2026-05-06 22:34 37.99907 -82.50015 27978 ft 396 kts 253°
2026-05-06 22:34 37.98964 -82.53293 27979 ft 396 kts 253°
2026-05-06 22:35 37.98021 -82.56571 27980 ft 396 kts 253°
2026-05-06 22:35 37.97077 -82.59847 27978 ft 396 kts 252°
2026-05-06 22:35 37.96142 -82.63087 27983 ft 397 kts 253°
2026-05-06 22:35 37.95193 -82.66366 27981 ft 397 kts 253°
2026-05-06 22:36 37.94242 -82.69651 27981 ft 397 kts 252°
2026-05-06 22:36 37.93290 -82.72938 27979 ft 397 kts 252°
2026-05-06 22:36 37.92339 -82.76219 27978 ft 398 kts 252°
2026-05-06 22:36 37.91385 -82.79507 27982 ft 398 kts 252°
2026-05-06 22:37 37.90430 -82.82790 27980 ft 398 kts 252°
2026-05-06 22:37 37.89468 -82.86077 27983 ft 398 kts 252°
2026-05-06 22:37 37.88492 -82.89354 27978 ft 398 kts 252°
2026-05-06 22:37 37.87505 -82.92633 27972 ft 398 kts 252°
2026-05-06 22:38 37.86513 -82.95909 27966 ft 399 kts 252°
2026-05-06 22:38 37.85518 -82.99187 27965 ft 399 kts 252°
2026-05-06 22:38 37.84525 -83.02465 27958 ft 399 kts 252°
2026-05-06 22:38 37.83533 -83.05748 27959 ft 399 kts 252°
2026-05-06 22:39 37.82542 -83.09029 27959 ft 400 kts 252°
2026-05-06 22:39 37.81549 -83.12316 27959 ft 400 kts 252°
2026-05-06 22:39 37.80555 -83.15605 27960 ft 400 kts 251°
2026-05-06 22:39 37.79557 -83.18888 27959 ft 401 kts 251°
2026-05-06 22:40 37.78558 -83.22178 27963 ft 401 kts 251°
2026-05-06 22:40 37.77558 -83.25466 27963 ft 401 kts 252°
2026-05-06 22:40 37.76576 -83.28770 27965 ft 402 kts 252°
2026-05-06 22:40 37.75617 -83.32087 27965 ft 402 kts 252°
2026-05-06 22:41 37.73732 -83.38735 27966 ft 402 kts 252°
2026-05-06 22:41 37.72784 -83.42063 27965 ft 403 kts 252°
2026-05-06 22:41 37.71825 -83.45393 27970 ft 403 kts 252°
2026-05-06 22:42 37.70860 -83.48717 27974 ft 404 kts 252°
2026-05-06 22:42 37.69890 -83.52049 27967 ft 404 kts 252°
2026-05-06 22:42 37.68917 -83.55384 27969 ft 404 kts 252°
2026-05-06 22:42 37.67946 -83.58714 27965 ft 404 kts 252°
2026-05-06 22:43 37.66975 -83.62047 27968 ft 405 kts 252°
2026-05-06 22:43 37.66000 -83.65388 27958 ft 405 kts 252°
2026-05-06 22:43 37.65027 -83.68725 27959 ft 406 kts 252°
2026-05-06 22:43 37.64054 -83.72066 27964 ft 406 kts 252°
2026-05-06 22:44 37.63078 -83.75407 27956 ft 406 kts 252°
2026-05-06 22:44 37.62097 -83.78745 27964 ft 406 kts 252°
2026-05-06 22:44 37.61113 -83.82086 27960 ft 406 kts 252°
2026-05-06 22:44 37.60134 -83.85421 27958 ft 406 kts 252°
2026-05-06 22:45 37.59155 -83.88759 27958 ft 406 kts 252°
2026-05-06 22:45 37.58177 -83.92094 27967 ft 407 kts 252°
2026-05-06 22:45 37.57192 -83.95444 27961 ft 406 kts 252°
2026-05-06 22:45 37.56209 -83.98778 27967 ft 406 kts 252°
2026-05-06 22:46 37.55223 -84.02110 27969 ft 406 kts 252°
2026-05-06 22:46 37.54232 -84.05448 27980 ft 407 kts 252°
2026-05-06 22:46 37.53240 -84.08784 27985 ft 407 kts 252°
2026-05-06 22:46 37.52245 -84.12121 27987 ft 407 kts 252°
2026-05-06 22:47 37.51249 -84.15464 27984 ft 407 kts 252°
2026-05-06 22:47 37.50255 -84.18805 27982 ft 408 kts 252°
2026-05-06 22:47 37.49271 -84.22114 27989 ft 408 kts 252°
2026-05-06 22:47 37.48277 -84.25462 27985 ft 409 kts 252°
2026-05-06 22:48 37.47260 -84.28809 27992 ft 409 kts 252°
2026-05-06 22:48 37.46221 -84.32140 27982 ft 409 kts 252°
2026-05-06 22:48 37.45165 -84.35477 27991 ft 410 kts 251°
2026-05-06 22:48 37.44106 -84.38807 27983 ft 410 kts 251°
2026-05-06 22:49 37.43048 -84.42135 27992 ft 410 kts 251°
2026-05-06 22:49 37.41992 -84.45462 27981 ft 410 kts 251°
2026-05-06 22:49 37.40935 -84.48798 27975 ft 410 kts 251°
2026-05-06 22:49 37.39885 -84.52125 27968 ft 410 kts 252°
2026-05-06 22:50 37.38835 -84.55457 27972 ft 410 kts 252°
2026-05-06 22:50 37.37782 -84.58793 27973 ft 410 kts 252°
2026-05-06 22:50 37.36732 -84.62119 27971 ft 410 kts 252°
2026-05-06 22:50 37.35682 -84.65447 27975 ft 410 kts 252°
2026-05-06 22:51 37.34626 -84.68776 27984 ft 410 kts 251°
2026-05-06 22:51 37.33568 -84.72100 27977 ft 410 kts 251°
2026-05-06 22:51 37.32505 -84.75427 27974 ft 410 kts 251°
2026-05-06 22:51 37.31446 -84.78751 27973 ft 410 kts 252°
2026-05-06 22:52 37.30390 -84.82087 27976 ft 410 kts 252°
2026-05-06 22:52 37.29339 -84.85411 27976 ft 410 kts 252°
2026-05-06 22:52 37.28287 -84.88740 27973 ft 410 kts 252°
2026-05-06 22:52 37.27231 -84.92064 27970 ft 410 kts 252°
2026-05-06 22:53 37.26171 -84.95391 27981 ft 411 kts 252°
2026-05-06 22:53 37.25106 -84.98722 27987 ft 411 kts 252°
2026-05-06 22:53 37.24043 -85.02048 27998 ft 411 kts 251°
2026-05-06 22:53 37.22978 -85.05379 28000 ft 411 kts 252°
2026-05-06 22:54 37.21914 -85.08706 27998 ft 410 kts 252°
2026-05-06 22:54 37.20876 -85.12035 27992 ft 409 kts 254°
2026-05-06 22:54 37.20131 -85.15470 27997 ft 408 kts 258°
2026-05-06 22:55 37.18723 -85.22371 28000 ft 408 kts 258°
2026-05-06 22:55 37.17306 -85.29222 28000 ft 409 kts 258°
2026-05-06 22:55 37.16588 -85.32677 28000 ft 409 kts 258°
2026-05-06 22:56 37.15861 -85.36175 28001 ft 410 kts 258°
2026-05-06 22:56 37.15144 -85.39631 27995 ft 410 kts 258°
2026-05-06 22:56 37.14436 -85.43045 27992 ft 410 kts 258°
2026-05-06 22:56 37.13718 -85.46504 27984 ft 410 kts 258°
2026-05-06 22:57 37.13000 -85.49960 27984 ft 410 kts 258°
2026-05-06 22:57 37.12280 -85.53418 27975 ft 410 kts 258°
2026-05-06 22:57 37.11558 -85.56875 27970 ft 410 kts 258°
2026-05-06 22:57 37.10834 -85.60331 27971 ft 411 kts 258°
2026-05-06 22:58 37.10106 -85.63791 27977 ft 411 kts 258°
2026-05-06 22:58 37.09377 -85.67250 27978 ft 410 kts 258°
2026-05-06 22:58 37.08650 -85.70704 27982 ft 411 kts 258°
2026-05-06 22:58 37.07923 -85.74167 27990 ft 411 kts 258°
2026-05-06 22:59 37.07430 -85.76508 27992 ft 411 kts 258°
2026-05-06 22:59 37.06706 -85.79928 27996 ft 412 kts 258°
2026-05-06 22:59 37.05971 -85.83396 28001 ft 412 kts 258°
2026-05-06 23:00 37.04503 -85.90331 28007 ft 412 kts 258°
2026-05-06 23:00 37.03033 -85.97267 28007 ft 412 kts 258°
2026-05-06 23:01 37.01549 -86.04208 28011 ft 413 kts 258°
2026-05-06 23:01 37.00060 -86.11139 28010 ft 413 kts 258°
2026-05-06 23:02 36.98566 -86.18088 28010 ft 413 kts 258°
2026-05-06 23:02 36.97078 -86.25011 28024 ft 412 kts 258°
2026-05-06 23:03 36.95578 -86.31933 28026 ft 412 kts 258°
2026-05-06 23:03 36.94082 -86.38841 28021 ft 412 kts 258°
2026-05-06 23:04 36.92415 -86.45695 28019 ft 415 kts 250°
2026-05-06 23:04 36.90072 -86.52304 28101 ft 416 kts 251°
2026-05-06 23:05 36.87815 -86.58947 28267 ft 415 kts 251°
2026-05-06 23:05 36.86725 -86.62281 28384 ft 414 kts 252°
2026-05-06 23:05 36.85661 -86.65617 28499 ft 413 kts 252°
2026-05-06 23:05 36.84624 -86.68954 28660 ft 412 kts 253°
2026-05-06 23:06 36.83612 -86.72295 28803 ft 411 kts 253°
2026-05-06 23:06 36.82626 -86.75639 28982 ft 410 kts 253°
2026-05-06 23:06 36.81668 -86.78977 29179 ft 408 kts 254°
2026-05-06 23:06 36.80738 -86.82314 29398 ft 407 kts 254°
2026-05-06 23:07 36.79834 -86.85653 29635 ft 406 kts 255°
2026-05-06 23:07 36.78956 -86.88994 29886 ft 404 kts 255°
2026-05-06 23:07 36.78106 -86.92327 30149 ft 402 kts 256°
2026-05-06 23:07 36.77284 -86.95653 30403 ft 401 kts 256°
2026-05-06 23:08 36.76489 -86.98975 30669 ft 399 kts 257°
2026-05-06 23:08 36.75730 -87.02252 30940 ft 397 kts 257°
2026-05-06 23:08 36.74988 -87.05566 31243 ft 396 kts 258°
2026-05-06 23:08 36.74277 -87.08871 31557 ft 394 kts 259°
2026-05-06 23:09 36.73593 -87.12168 31889 ft 392 kts 259°
2026-05-06 23:09 36.72935 -87.15455 32240 ft 389 kts 260°
2026-05-06 23:09 36.72305 -87.18727 32624 ft 387 kts 261°
2026-05-06 23:09 36.71704 -87.21988 33020 ft 384 kts 261°
2026-05-06 23:10 36.71128 -87.25230 33449 ft 382 kts 262°
2026-05-06 23:10 36.70579 -87.28448 33908 ft 378 kts 262°
2026-05-06 23:10 36.70056 -87.31645 34339 ft 374 kts 263°
2026-05-06 23:10 36.69561 -87.34811 34774 ft 371 kts 263°
2026-05-06 23:11 36.69092 -87.37955 35230 ft 367 kts 264°
2026-05-06 23:11 36.68653 -87.41061 35713 ft 361 kts 265°
2026-05-06 23:11 36.68244 -87.44124 36177 ft 356 kts 265°
2026-05-06 23:11 36.67865 -87.47147 36707 ft 351 kts 266°
2026-05-06 23:12 36.67514 -87.50129 37305 ft 345 kts 266°
2026-05-06 23:12 36.67190 -87.53058 37895 ft 339 kts 267°
2026-05-06 23:12 36.66892 -87.55939 38511 ft 332 kts 268°
2026-05-06 23:12 36.66623 -87.58763 39065 ft 324 kts 268°
2026-05-06 23:13 36.66381 -87.61520 39596 ft 317 kts 269°
2026-05-06 23:13 36.66165 -87.64215 40139 ft 308 kts 269°
2026-05-06 23:13 36.65977 -87.66834 40692 ft 299 kts 269°
2026-05-06 23:13 36.65815 -87.69377 41241 ft 289 kts 269°
2026-05-06 23:14 36.65676 -87.71834 41126 ft 286 kts 270°
2026-05-06 23:14 36.65253 -87.74500 39293 ft 341 kts 252°
2026-05-06 23:14 36.63961 -87.77052 38765 ft 355 kts 244°
2026-05-06 23:14 36.62473 -87.79568 37990 ft 365 kts 244°
2026-05-06 23:15 36.60940 -87.82127 36978 ft 374 kts 243°
2026-05-06 23:15 36.59350 -87.84738 35898 ft 382 kts 242°
2026-05-06 23:15 36.59256 -87.84890 35837 ft 383 kts 242°
2026-05-06 23:16 36.59071 -87.85191 35725 ft 384 kts 242°
2026-05-06 23:16 36.57426 -87.87839 34675 ft 389 kts 241°
2026-05-06 23:16 36.55752 -87.90513 33617 ft 393 kts 241°
2026-05-06 23:16 36.54064 -87.93204 32497 ft 397 kts 240°
2026-05-06 23:17 36.52359 -87.95921 31425 ft 400 kts 239°
2026-05-06 23:17 36.50646 -87.98667 30380 ft 404 kts 238°
2026-05-06 23:17 36.48914 -88.01441 29246 ft 410 kts 237°
2026-05-06 23:17 36.47153 -88.04253 28425 ft 415 kts 237°
2026-05-06 23:18 36.45374 -88.07100 28153 ft 419 kts 237°
2026-05-06 23:18 36.43580 -88.09964 28005 ft 420 kts 237°
2026-05-06 23:18 36.41783 -88.12833 28041 ft 421 kts 237°
2026-05-06 23:19 36.38182 -88.18582 28031 ft 422 kts 237°
2026-05-06 23:19 36.34580 -88.24323 28017 ft 421 kts 237°
2026-05-06 23:20 36.30975 -88.30058 28014 ft 421 kts 237°
2026-05-06 23:20 36.27372 -88.35777 28024 ft 421 kts 237°
2026-05-06 23:21 36.23768 -88.41489 28023 ft 421 kts 237°
2026-05-06 23:21 36.20164 -88.47191 27999 ft 420 kts 237°
2026-05-06 23:21 36.18360 -88.50039 27993 ft 420 kts 237°
2026-05-06 23:22 36.16555 -88.52884 27991 ft 420 kts 237°
2026-05-06 23:22 36.14786 -88.55749 27991 ft 417 kts 241°
2026-05-06 23:22 36.13391 -88.58854 27998 ft 412 kts 248°
2026-05-06 23:23 36.10942 -88.65258 28011 ft 411 kts 248°
2026-05-06 23:23 36.08492 -88.71646 28026 ft 411 kts 248°
2026-05-06 23:24 36.06039 -88.78024 28038 ft 411 kts 248°
2026-05-06 23:24 36.03576 -88.84388 28051 ft 410 kts 248°
2026-05-06 23:25 36.01115 -88.90752 28060 ft 410 kts 248°
2026-05-06 23:25 35.98670 -88.97061 28061 ft 410 kts 248°
2026-05-06 23:26 35.96186 -89.03448 28055 ft 410 kts 248°
2026-05-06 23:26 35.93725 -89.09781 28058 ft 409 kts 248°
2026-05-06 23:27 35.91258 -89.16107 28058 ft 409 kts 248°
2026-05-06 23:27 35.88806 -89.22382 28058 ft 409 kts 248°
2026-05-06 23:28 35.86334 -89.28692 28061 ft 408 kts 248°
2026-05-06 23:28 35.83861 -89.34986 28061 ft 408 kts 248°
2026-05-06 23:29 35.81389 -89.41261 28062 ft 407 kts 248°
2026-05-06 23:29 35.78918 -89.47536 28056 ft 407 kts 248°
2026-05-06 23:30 35.76454 -89.53793 28056 ft 406 kts 248°
2026-05-06 23:30 35.73991 -89.60044 28053 ft 405 kts 247°
2026-05-06 23:31 35.71522 -89.66275 28056 ft 405 kts 247°
2026-05-06 23:31 35.69046 -89.72490 28057 ft 404 kts 247°
2026-05-06 23:32 35.66573 -89.78699 28054 ft 404 kts 247°
2026-05-06 23:32 35.64103 -89.84890 28052 ft 403 kts 247°
2026-05-06 23:33 35.61645 -89.91074 28052 ft 402 kts 247°
2026-05-06 23:33 35.59181 -89.97241 28047 ft 402 kts 247°
2026-05-06 23:34 35.56729 -90.03347 28023 ft 389 kts 245°
2026-05-06 23:34 35.54365 -90.09211 28024 ft 380 kts 245°
2026-05-06 23:35 35.52037 -90.15026 28028 ft 379 kts 245°
2026-05-06 23:35 35.49703 -90.20830 28031 ft 379 kts 245°
2026-05-06 23:36 35.47362 -90.26618 28044 ft 379 kts 245°
2026-05-06 23:36 35.45024 -90.32406 28035 ft 379 kts 245°
2026-05-06 23:37 35.42685 -90.38189 28040 ft 379 kts 245°
2026-05-06 23:37 35.40337 -90.43964 28047 ft 378 kts 245°
2026-05-06 23:38 35.37990 -90.49738 28045 ft 379 kts 245°
2026-05-06 23:38 35.35643 -90.55515 28042 ft 379 kts 245°
2026-05-06 23:39 35.33289 -90.61285 28042 ft 379 kts 245°
2026-05-06 23:39 35.30933 -90.67057 28040 ft 379 kts 245°
2026-05-06 23:40 35.28569 -90.72827 28032 ft 379 kts 245°
2026-05-06 23:40 35.26214 -90.78561 28037 ft 379 kts 245°
2026-05-06 23:41 35.24231 -90.83393 28030 ft 379 kts 245°
2026-05-06 23:41 35.21475 -90.90094 28037 ft 379 kts 244°
2026-05-06 23:42 35.19101 -90.95857 28034 ft 379 kts 244°
2026-05-06 23:42 35.17115 -91.00684 28038 ft 380 kts 244°
2026-05-06 23:43 35.14733 -91.06442 28032 ft 380 kts 244°
2026-05-06 23:43 35.12342 -91.12192 28031 ft 380 kts 244°
2026-05-06 23:44 35.09953 -91.17943 28025 ft 380 kts 244°
2026-05-06 23:44 35.07568 -91.23696 28034 ft 380 kts 244°
2026-05-06 23:45 35.05176 -91.29454 28035 ft 380 kts 244°
2026-05-06 23:45 35.02776 -91.35205 28034 ft 380 kts 244°
2026-05-06 23:46 35.00375 -91.40961 28023 ft 381 kts 244°
2026-05-06 23:46 34.97963 -91.46712 28039 ft 381 kts 244°
2026-05-06 23:47 34.95549 -91.52462 28037 ft 381 kts 244°
2026-05-06 23:47 34.93138 -91.58218 28037 ft 381 kts 244°
2026-05-06 23:48 34.90723 -91.63969 28037 ft 381 kts 244°
2026-05-06 23:48 34.88297 -91.69709 28039 ft 381 kts 244°
2026-05-06 23:49 34.85880 -91.75437 28040 ft 380 kts 244°
2026-05-06 23:49 34.83463 -91.81169 28039 ft 380 kts 244°
2026-05-06 23:50 34.81035 -91.86890 28038 ft 381 kts 244°
2026-05-06 23:50 34.77400 -91.95443 28043 ft 381 kts 244°
2026-05-06 23:51 34.74949 -92.01208 28053 ft 382 kts 244°
2026-05-06 23:51 34.72523 -92.06907 28062 ft 382 kts 244°
2026-05-06 23:52 34.70061 -92.12679 28067 ft 382 kts 244°
2026-05-06 23:52 34.67695 -92.18403 28061 ft 381 kts 248°
2026-05-06 23:53 34.66003 -92.24559 28064 ft 382 kts 251°
2026-05-06 23:53 34.64344 -92.30646 28062 ft 382 kts 251°
2026-05-06 23:54 34.62671 -92.36777 28055 ft 383 kts 251°
2026-05-06 23:54 34.60998 -92.42911 28053 ft 383 kts 251°
2026-05-06 23:55 34.59320 -92.49038 28052 ft 383 kts 250°
2026-05-06 23:55 34.57628 -92.55177 28050 ft 383 kts 250°
2026-05-06 23:56 34.55939 -92.61315 28051 ft 384 kts 251°
2026-05-06 23:56 34.54250 -92.67457 28048 ft 384 kts 250°
2026-05-06 23:57 34.52546 -92.73596 28050 ft 384 kts 250°
2026-05-06 23:57 34.50839 -92.79736 28047 ft 384 kts 250°
2026-05-06 23:58 34.49133 -92.85878 28050 ft 385 kts 250°
2026-05-06 23:58 34.47420 -92.92019 28056 ft 385 kts 250°
2026-05-06 23:59 34.45701 -92.98167 28063 ft 385 kts 250°
2026-05-06 23:59 34.43982 -93.04318 28062 ft 385 kts 250°
2026-05-07 00:00 34.42262 -93.10467 28063 ft 385 kts 250°
2026-05-07 00:00 34.40537 -93.16612 28062 ft 385 kts 250°
2026-05-07 00:01 34.38806 -93.22753 28056 ft 385 kts 250°
2026-05-07 00:01 34.37074 -93.28895 28052 ft 386 kts 250°
2026-05-07 00:02 34.35341 -93.35040 28046 ft 385 kts 250°
2026-05-07 00:02 34.33601 -93.41174 28035 ft 385 kts 250°
2026-05-07 00:03 34.31852 -93.47302 28026 ft 385 kts 250°
2026-05-07 00:03 34.30106 -93.53430 28019 ft 385 kts 250°
2026-05-07 00:04 34.28360 -93.59557 28011 ft 385 kts 250°
2026-05-07 00:04 34.26612 -93.65681 28010 ft 385 kts 250°
2026-05-07 00:05 34.24863 -93.71802 28022 ft 385 kts 250°
2026-05-07 00:05 34.23103 -93.77924 28017 ft 385 kts 250°
2026-05-07 00:06 34.21342 -93.84041 28012 ft 385 kts 250°
2026-05-07 00:06 34.19579 -93.90159 28017 ft 386 kts 250°
2026-05-07 00:07 34.17977 -93.96346 28010 ft 386 kts 252°
2026-05-07 00:07 34.16568 -94.02611 28011 ft 387 kts 253°
2026-05-07 00:08 34.15144 -94.08875 28014 ft 387 kts 252°
2026-05-07 00:08 34.13664 -94.15115 28015 ft 387 kts 252°
2026-05-07 00:09 34.12163 -94.21342 28020 ft 387 kts 252°
2026-05-07 00:09 34.10667 -94.27575 28019 ft 387 kts 252°
2026-05-07 00:10 34.09169 -94.33805 28024 ft 387 kts 252°
2026-05-07 00:10 34.07672 -94.40037 28025 ft 387 kts 252°
2026-05-07 00:11 34.06171 -94.46268 28018 ft 387 kts 252°
2026-05-07 00:11 34.04676 -94.52457 28019 ft 387 kts 252°
2026-05-07 00:12 34.03170 -94.58687 28019 ft 387 kts 252°
2026-05-07 00:12 34.01659 -94.64917 28017 ft 387 kts 252°
2026-05-07 00:13 34.00135 -94.71144 28018 ft 387 kts 252°
2026-05-07 00:13 33.98610 -94.77389 28017 ft 388 kts 252°
2026-05-07 00:14 33.97088 -94.83607 28015 ft 388 kts 252°
2026-05-07 00:14 33.95560 -94.89832 28016 ft 388 kts 252°
2026-05-07 00:15 33.94032 -94.96069 28020 ft 388 kts 252°
2026-05-07 00:15 33.92497 -95.02301 28021 ft 388 kts 252°
2026-05-07 00:16 33.90953 -95.08532 28018 ft 388 kts 251°
2026-05-07 00:16 33.89405 -95.14762 28022 ft 389 kts 251°
2026-05-07 00:17 33.87862 -95.20994 28029 ft 389 kts 252°
2026-05-07 00:17 33.86313 -95.27224 28031 ft 389 kts 251°
2026-05-07 00:18 33.84764 -95.33450 28034 ft 389 kts 251°
2026-05-07 00:18 33.83205 -95.39675 28040 ft 388 kts 251°
2026-05-07 00:19 33.81647 -95.45893 28044 ft 388 kts 251°
2026-05-07 00:19 33.80088 -95.52106 28046 ft 388 kts 251°
2026-05-07 00:20 33.78522 -95.58314 28040 ft 388 kts 251°
2026-05-07 00:20 33.76952 -95.64518 28037 ft 388 kts 251°
2026-05-07 00:21 33.75379 -95.70719 28033 ft 388 kts 251°
2026-05-07 00:21 33.73808 -95.76921 28036 ft 388 kts 251°
2026-05-07 00:22 33.72243 -95.83082 28034 ft 388 kts 251°
2026-05-07 00:22 33.70665 -95.89277 28031 ft 388 kts 251°
2026-05-07 00:23 33.69338 -95.94464 28033 ft 388 kts 251°
2026-05-07 00:23 33.67495 -96.01659 28031 ft 388 kts 251°
2026-05-07 00:24 33.65914 -96.07847 28038 ft 388 kts 251°
2026-05-07 00:24 33.64581 -96.13026 28041 ft 388 kts 251°
2026-05-07 00:25 33.62987 -96.19206 28039 ft 388 kts 251°
2026-05-07 00:25 33.61387 -96.25379 28041 ft 388 kts 251°
2026-05-07 00:26 33.59791 -96.31554 28047 ft 387 kts 251°
2026-05-07 00:26 33.58196 -96.37724 28047 ft 387 kts 251°
2026-05-07 00:27 33.56594 -96.43889 28050 ft 387 kts 251°
2026-05-07 00:27 33.54988 -96.50052 28054 ft 387 kts 251°
2026-05-07 00:28 33.53390 -96.56168 28056 ft 387 kts 251°
2026-05-07 00:28 33.51776 -96.62323 28052 ft 387 kts 251°
2026-05-07 00:29 33.50159 -96.68470 28054 ft 387 kts 251°
2026-05-07 00:30 33.46927 -96.80755 28037 ft 386 kts 251°
2026-05-07 00:30 33.45302 -96.86891 28031 ft 386 kts 251°
2026-05-07 00:31 33.43677 -96.93021 28026 ft 386 kts 251°
2026-05-07 00:31 33.42050 -96.99151 28015 ft 386 kts 251°
2026-05-07 00:32 33.40418 -97.05280 28012 ft 387 kts 251°
2026-05-07 00:32 33.38785 -97.11411 28012 ft 387 kts 251°
2026-05-07 00:33 33.37149 -97.17539 28017 ft 387 kts 251°
2026-05-07 00:33 33.35510 -97.23667 28019 ft 387 kts 251°
2026-05-07 00:34 33.33866 -97.29791 28018 ft 387 kts 251°
2026-05-07 00:34 33.32219 -97.35912 28019 ft 387 kts 251°
2026-05-07 00:35 33.30569 -97.42032 28037 ft 386 kts 251°
2026-05-07 00:35 33.28920 -97.48146 28048 ft 386 kts 251°
2026-05-07 00:36 33.27273 -97.54254 28048 ft 386 kts 251°
2026-05-07 00:36 33.25629 -97.60309 28048 ft 386 kts 251°
2026-05-07 00:37 33.23968 -97.66408 28045 ft 386 kts 251°
2026-05-07 00:37 33.22307 -97.72499 28064 ft 386 kts 251°
2026-05-07 00:38 33.20639 -97.78584 28066 ft 386 kts 251°
2026-05-07 00:38 33.18977 -97.84668 28064 ft 385 kts 251°
2026-05-07 00:39 33.17317 -97.90750 28064 ft 385 kts 251°
2026-05-07 00:39 33.15649 -97.96826 28058 ft 385 kts 250°
2026-05-07 00:40 33.13974 -98.02895 28047 ft 385 kts 250°
2026-05-07 00:40 33.12295 -98.08957 28034 ft 385 kts 250°
2026-05-07 00:41 33.10618 -98.15019 28018 ft 385 kts 250°
2026-05-07 00:41 33.08941 -98.21083 28006 ft 385 kts 250°
2026-05-07 00:42 33.07258 -98.27136 28022 ft 385 kts 250°
2026-05-07 00:42 33.05572 -98.33185 28026 ft 385 kts 250°
2026-05-07 00:43 33.03890 -98.39238 28035 ft 385 kts 250°
2026-05-07 00:43 33.02194 -98.45286 28039 ft 385 kts 250°
2026-05-07 00:44 33.00498 -98.51327 28042 ft 385 kts 250°
2026-05-07 00:44 32.98806 -98.57370 28033 ft 385 kts 250°
2026-05-07 00:45 32.97108 -98.63413 28028 ft 385 kts 250°
2026-05-07 00:45 32.95400 -98.69457 28022 ft 385 kts 250°
2026-05-07 00:46 32.93690 -98.75500 28015 ft 385 kts 250°
2026-05-07 00:46 32.91980 -98.81543 28023 ft 385 kts 250°
2026-05-07 00:47 32.90270 -98.87587 28028 ft 385 kts 250°
2026-05-07 00:47 32.88554 -98.93634 28034 ft 386 kts 250°
2026-05-07 00:48 32.86831 -98.99669 28034 ft 386 kts 250°
2026-05-07 00:48 32.85116 -99.05671 28035 ft 386 kts 250°
2026-05-07 00:49 32.83376 -99.11747 28028 ft 386 kts 250°
2026-05-07 00:49 32.81663 -99.17746 28021 ft 385 kts 250°
2026-05-07 00:50 32.79933 -99.23771 28018 ft 385 kts 250°
2026-05-07 00:50 32.78199 -99.29802 28007 ft 385 kts 250°
2026-05-07 00:51 32.76461 -99.35825 28003 ft 385 kts 250°
2026-05-07 00:51 32.74723 -99.41845 27996 ft 385 kts 250°
2026-05-07 00:52 32.73850 -99.44857 28000 ft 385 kts 250°
2026-05-07 00:52 32.72979 -99.47865 27997 ft 385 kts 250°
2026-05-07 00:52 32.72106 -99.50873 27997 ft 386 kts 250°
2026-05-07 00:52 32.71229 -99.53883 28003 ft 386 kts 250°
2026-05-07 00:53 32.70349 -99.56894 28000 ft 386 kts 250°
2026-05-07 00:53 32.69472 -99.59900 28001 ft 386 kts 250°
2026-05-07 00:53 32.67720 -99.65920 28004 ft 386 kts 250°
2026-05-07 00:54 32.65967 -99.71941 28010 ft 386 kts 250°
2026-05-07 00:54 32.64212 -99.77964 28002 ft 386 kts 250°
2026-05-07 00:55 32.62445 -99.83973 28005 ft 386 kts 249°
2026-05-07 00:55 32.60675 -99.89986 28003 ft 386 kts 250°
2026-05-07 00:56 32.58910 -99.95992 28003 ft 386 kts 249°
2026-05-07 00:56 32.57138 -100.02002 28001 ft 386 kts 249°
2026-05-07 00:57 32.56252 -100.05005 28000 ft 386 kts 249°
2026-05-07 00:57 32.55364 -100.08004 27996 ft 386 kts 249°
2026-05-07 00:57 32.54475 -100.11000 27996 ft 386 kts 249°
2026-05-07 00:57 32.53585 -100.14003 27994 ft 386 kts 249°
2026-05-07 00:58 32.51810 -100.19996 28018 ft 386 kts 249°
2026-05-07 00:58 32.50029 -100.25986 28033 ft 385 kts 249°
2026-05-07 00:59 32.48045 -100.35198 28057 ft 390 kts 261°
2026-05-07 01:00 32.47542 -100.41596 28060 ft 390 kts 261°
2026-05-07 01:00 32.47037 -100.47988 28061 ft 390 kts 260°
2026-05-07 01:01 32.46522 -100.54371 28060 ft 390 kts 260°
2026-05-07 01:01 32.46007 -100.60754 28047 ft 390 kts 260°
2026-05-07 01:02 32.45486 -100.67143 28028 ft 390 kts 260°
2026-05-07 01:02 32.44958 -100.73525 28002 ft 390 kts 260°
2026-05-07 01:02 32.44691 -100.76720 27990 ft 390 kts 260°
2026-05-07 01:03 32.44424 -100.79916 27981 ft 390 kts 260°
2026-05-07 01:03 32.44157 -100.83108 27975 ft 390 kts 260°
2026-05-07 01:03 32.43892 -100.86304 27974 ft 390 kts 260°
2026-05-07 01:03 32.43627 -100.89501 27973 ft 390 kts 260°
2026-05-07 01:04 32.43360 -100.92695 27966 ft 390 kts 260°
2026-05-07 01:04 32.43094 -100.95888 27966 ft 390 kts 260°
2026-05-07 01:04 32.42827 -100.99086 27968 ft 390 kts 260°
2026-05-07 01:04 32.42557 -101.02280 27964 ft 390 kts 259°
2026-05-07 01:05 32.42285 -101.05479 27966 ft 390 kts 260°
2026-05-07 01:05 32.42015 -101.08640 27957 ft 391 kts 260°
2026-05-07 01:05 32.41741 -101.11841 27953 ft 391 kts 260°
2026-05-07 01:05 32.41466 -101.15039 27943 ft 391 kts 260°
2026-05-07 01:06 32.41190 -101.18242 27933 ft 391 kts 260°
2026-05-07 01:06 32.40913 -101.21448 27937 ft 391 kts 260°
2026-05-07 01:06 32.40636 -101.24654 27940 ft 392 kts 260°
2026-05-07 01:06 32.40360 -101.27858 27947 ft 392 kts 260°
2026-05-07 01:07 32.40082 -101.31063 27948 ft 392 kts 259°
2026-05-07 01:07 32.39801 -101.34272 27956 ft 392 kts 260°
2026-05-07 01:07 32.39521 -101.37483 27959 ft 392 kts 260°
2026-05-07 01:07 32.39241 -101.40690 27963 ft 392 kts 260°
2026-05-07 01:08 32.39054 -101.42816 27968 ft 392 kts 259°
2026-05-07 01:08 32.38770 -101.46023 27966 ft 392 kts 259°
2026-05-07 01:08 32.38485 -101.49237 27972 ft 393 kts 260°
2026-05-07 01:08 32.38217 -101.52455 27971 ft 393 kts 260°
2026-05-07 01:09 32.37967 -101.55675 27972 ft 394 kts 261°
2026-05-07 01:09 32.37725 -101.58902 27971 ft 394 kts 261°
2026-05-07 01:09 32.37484 -101.62131 27965 ft 394 kts 261°
2026-05-07 01:09 32.37241 -101.65361 27963 ft 394 kts 261°
2026-05-07 01:10 32.36994 -101.68586 27957 ft 394 kts 261°
2026-05-07 01:10 32.36742 -101.71815 27952 ft 394 kts 260°
2026-05-07 01:10 32.36486 -101.75042 27949 ft 394 kts 260°
2026-05-07 01:10 32.36228 -101.78272 27943 ft 394 kts 260°
2026-05-07 01:11 32.35972 -101.81498 27940 ft 394 kts 260°
2026-05-07 01:11 32.35716 -101.84728 27933 ft 394 kts 260°
2026-05-07 01:11 32.35462 -101.87953 27928 ft 394 kts 260°
2026-05-07 01:11 32.35205 -101.91183 27922 ft 394 kts 260°
2026-05-07 01:12 32.34946 -101.94410 27930 ft 394 kts 260°
2026-05-07 01:12 32.34683 -101.97631 27933 ft 394 kts 260°
2026-05-07 01:12 32.34416 -102.00850 27935 ft 393 kts 260°
2026-05-07 01:12 32.34149 -102.04067 27942 ft 393 kts 260°
2026-05-07 01:13 32.33883 -102.07279 27943 ft 393 kts 260°
2026-05-07 01:13 32.33620 -102.10496 27945 ft 392 kts 260°
2026-05-07 01:13 32.33360 -102.13704 27944 ft 392 kts 260°
2026-05-07 01:13 32.33099 -102.16913 27948 ft 392 kts 260°
2026-05-07 01:14 32.32834 -102.20118 27949 ft 392 kts 260°
2026-05-07 01:14 32.32568 -102.23320 27944 ft 392 kts 260°
2026-05-07 01:14 32.32302 -102.26525 27943 ft 391 kts 260°
2026-05-07 01:14 32.32037 -102.29725 27943 ft 391 kts 260°
2026-05-07 01:15 32.31771 -102.32924 27938 ft 391 kts 260°
2026-05-07 01:15 32.31504 -102.36122 27932 ft 391 kts 260°
2026-05-07 01:15 32.31236 -102.39320 27931 ft 391 kts 260°
2026-05-07 01:15 32.30969 -102.42514 27929 ft 390 kts 260°
2026-05-07 01:16 32.30701 -102.45708 27929 ft 390 kts 260°
2026-05-07 01:16 32.30433 -102.48899 27932 ft 390 kts 260°
2026-05-07 01:16 32.30161 -102.52084 27930 ft 390 kts 260°
2026-05-07 01:16 32.29888 -102.55272 27931 ft 390 kts 260°
2026-05-07 01:17 32.29615 -102.58454 27934 ft 389 kts 260°
2026-05-07 01:17 32.29339 -102.61635 27937 ft 389 kts 260°
2026-05-07 01:17 32.29064 -102.64811 27933 ft 388 kts 260°
2026-05-07 01:17 32.28787 -102.67986 27936 ft 388 kts 260°
2026-05-07 01:18 32.28513 -102.71154 27936 ft 387 kts 260°
2026-05-07 01:18 32.28239 -102.74321 27934 ft 387 kts 261°
2026-05-07 01:18 32.27966 -102.77484 27933 ft 387 kts 261°
2026-05-07 01:18 32.27691 -102.80638 27932 ft 386 kts 261°
2026-05-07 01:19 32.27415 -102.83790 27928 ft 385 kts 261°
2026-05-07 01:19 32.27139 -102.86942 27929 ft 385 kts 261°
2026-05-07 01:19 32.26862 -102.90079 27925 ft 384 kts 261°
2026-05-07 01:19 32.26583 -102.93218 27915 ft 384 kts 261°
2026-05-07 01:20 32.26305 -102.96355 27902 ft 383 kts 261°
2026-05-07 01:20 32.26033 -102.99446 27888 ft 383 kts 261°
2026-05-07 01:20 32.25753 -103.02620 27883 ft 383 kts 261°
2026-05-07 01:20 32.25473 -103.05750 27870 ft 383 kts 261°
2026-05-07 01:21 32.25189 -103.08877 27863 ft 383 kts 261°
2026-05-07 01:21 32.24908 -103.12009 27849 ft 384 kts 261°
2026-05-07 01:21 32.24625 -103.15144 27843 ft 384 kts 261°
2026-05-07 01:21 32.24343 -103.18237 27833 ft 384 kts 261°
2026-05-07 01:22 32.24057 -103.21373 27828 ft 384 kts 261°
2026-05-07 01:22 32.23770 -103.24514 27821 ft 385 kts 261°
2026-05-07 01:22 32.23484 -103.27659 27818 ft 385 kts 261°
2026-05-07 01:22 32.23197 -103.30808 27817 ft 386 kts 261°
2026-05-07 01:23 32.22910 -103.33961 27817 ft 386 kts 261°
2026-05-07 01:23 32.22621 -103.37117 27819 ft 387 kts 261°
2026-05-07 01:23 32.22329 -103.40277 27817 ft 387 kts 260°
2026-05-07 01:23 32.22037 -103.43440 27821 ft 388 kts 260°
2026-05-07 01:24 32.21743 -103.46604 27818 ft 388 kts 260°
2026-05-07 01:24 32.21447 -103.49770 27817 ft 388 kts 260°
2026-05-07 01:24 32.21152 -103.52938 27824 ft 388 kts 260°
2026-05-07 01:24 32.20859 -103.56108 27828 ft 388 kts 260°
2026-05-07 01:25 32.20565 -103.59280 27823 ft 389 kts 260°
2026-05-07 01:25 32.20269 -103.62450 27828 ft 389 kts 260°
2026-05-07 01:25 32.19971 -103.65622 27813 ft 389 kts 260°
2026-05-07 01:25 32.19670 -103.68798 27816 ft 389 kts 260°
2026-05-07 01:26 32.19367 -103.71969 27820 ft 389 kts 260°
2026-05-07 01:26 32.19061 -103.75144 27825 ft 389 kts 260°
2026-05-07 01:26 32.18757 -103.78322 27825 ft 389 kts 260°
2026-05-07 01:26 32.18455 -103.81497 27828 ft 390 kts 260°
2026-05-07 01:27 32.18151 -103.84674 27826 ft 390 kts 260°
2026-05-07 01:27 32.17844 -103.87855 27826 ft 390 kts 260°
2026-05-07 01:27 32.17536 -103.91031 27839 ft 390 kts 260°
2026-05-07 01:27 32.17226 -103.94213 27844 ft 390 kts 260°
2026-05-07 01:28 32.16918 -103.97393 27864 ft 390 kts 260°
2026-05-07 01:28 32.16610 -104.00576 27877 ft 390 kts 260°
2026-05-07 01:28 32.16301 -104.03758 27873 ft 390 kts 260°
2026-05-07 01:28 32.15992 -104.06943 27893 ft 391 kts 260°
2026-05-07 01:29 32.15681 -104.10126 27908 ft 391 kts 260°
2026-05-07 01:29 32.15369 -104.13310 27913 ft 391 kts 260°
2026-05-07 01:29 32.15057 -104.16496 27920 ft 391 kts 260°
2026-05-07 01:29 32.14744 -104.19680 27925 ft 391 kts 260°
2026-05-07 01:30 32.14428 -104.22869 27926 ft 391 kts 260°
2026-05-07 01:30 32.14113 -104.26059 27909 ft 391 kts 260°
2026-05-07 01:30 32.13795 -104.29253 27923 ft 392 kts 260°
2026-05-07 01:30 32.13475 -104.32444 27917 ft 392 kts 260°
2026-05-07 01:31 32.13156 -104.35637 27913 ft 392 kts 260°
2026-05-07 01:31 32.12835 -104.38832 27909 ft 392 kts 260°
2026-05-07 01:31 32.12515 -104.42028 27901 ft 392 kts 260°
2026-05-07 01:31 32.12193 -104.45231 27893 ft 393 kts 260°
2026-05-07 01:32 32.11871 -104.48429 27887 ft 393 kts 260°
2026-05-07 01:32 32.11552 -104.51627 27876 ft 393 kts 260°
2026-05-07 01:32 32.11229 -104.54833 27868 ft 393 kts 260°
2026-05-07 01:32 32.10904 -104.58035 27863 ft 394 kts 260°
2026-05-07 01:33 32.10576 -104.61239 27851 ft 394 kts 260°
2026-05-07 01:33 32.10245 -104.64448 27860 ft 394 kts 259°
2026-05-07 01:33 32.09913 -104.67656 27867 ft 394 kts 259°
2026-05-07 01:33 32.09582 -104.70868 27871 ft 395 kts 259°
2026-05-07 01:34 32.09249 -104.74080 27876 ft 394 kts 259°
2026-05-07 01:34 32.08916 -104.77289 27876 ft 394 kts 260°
2026-05-07 01:34 32.08586 -104.80495 27878 ft 394 kts 260°
2026-05-07 01:34 32.08255 -104.83707 27876 ft 394 kts 260°
2026-05-07 01:35 32.07923 -104.86915 27858 ft 394 kts 259°
2026-05-07 01:35 32.07591 -104.90116 27877 ft 394 kts 260°
2026-05-07 01:35 32.07257 -104.93321 27886 ft 394 kts 259°
2026-05-07 01:35 32.06925 -104.96491 27884 ft 394 kts 259°
2026-05-07 01:36 32.06587 -104.99694 27882 ft 394 kts 259°
2026-05-07 01:36 32.06244 -105.02945 27878 ft 394 kts 259°
2026-05-07 01:36 32.05906 -105.06149 27857 ft 394 kts 259°
2026-05-07 01:36 32.05571 -105.09311 27873 ft 394 kts 259°
2026-05-07 01:37 32.05229 -105.12516 27868 ft 394 kts 259°
2026-05-07 01:37 32.04885 -105.15720 27860 ft 394 kts 259°
2026-05-07 01:37 32.04546 -105.18924 27869 ft 394 kts 259°
2026-05-07 01:37 32.04206 -105.22135 27868 ft 395 kts 259°
2026-05-07 01:38 32.03865 -105.25343 27867 ft 395 kts 259°
2026-05-07 01:38 32.03516 -105.28594 27865 ft 395 kts 259°
2026-05-07 01:38 32.03174 -105.31759 27859 ft 395 kts 259°
2026-05-07 01:38 32.02823 -105.35012 27866 ft 395 kts 259°
2026-05-07 01:39 32.02481 -105.38189 27854 ft 395 kts 259°
2026-05-07 01:39 32.02134 -105.41408 27860 ft 396 kts 259°
2026-05-07 01:39 32.01784 -105.44621 27869 ft 396 kts 259°
2026-05-07 01:39 32.01432 -105.47842 27869 ft 396 kts 259°
2026-05-07 01:40 32.01079 -105.51055 27873 ft 396 kts 259°
2026-05-07 01:40 32.00723 -105.54277 27860 ft 396 kts 259°
2026-05-07 01:40 32.00369 -105.57494 27874 ft 396 kts 259°
2026-05-07 01:40 32.00017 -105.60719 27871 ft 397 kts 259°
2026-05-07 01:41 31.99665 -105.63939 27876 ft 397 kts 259°
2026-05-07 01:41 31.99307 -105.67163 27875 ft 397 kts 259°
2026-05-07 01:41 31.98949 -105.70392 27880 ft 397 kts 259°
2026-05-07 01:41 31.98795 -105.73656 27878 ft 403 kts 267°
2026-05-07 01:42 31.99039 -105.76955 27883 ft 405 kts 270°
2026-05-07 01:42 31.99307 -105.80257 27888 ft 405 kts 270°
2026-05-07 01:42 31.99573 -105.83560 27881 ft 405 kts 269°
2026-05-07 01:42 31.99837 -105.86862 27890 ft 405 kts 269°
2026-05-07 01:43 32.00099 -105.90170 27895 ft 405 kts 269°
2026-05-07 01:43 32.00358 -105.93481 27897 ft 405 kts 269°
2026-05-07 01:43 32.00614 -105.96790 27897 ft 405 kts 269°
2026-05-07 01:43 32.00870 -106.00100 27883 ft 406 kts 269°
2026-05-07 01:44 32.01128 -106.03404 27906 ft 406 kts 269°
2026-05-07 01:44 32.01387 -106.06717 27919 ft 406 kts 269°
2026-05-07 01:44 32.01645 -106.10030 27927 ft 406 kts 269°
2026-05-07 01:44 32.01901 -106.13342 27941 ft 406 kts 269°
2026-05-07 01:45 32.02158 -106.16649 27948 ft 406 kts 269°
2026-05-07 01:45 32.02416 -106.19962 27951 ft 406 kts 269°
2026-05-07 01:45 32.02673 -106.23271 27959 ft 406 kts 269°
2026-05-07 01:45 32.02929 -106.26582 27968 ft 406 kts 269°
2026-05-07 01:46 32.03183 -106.29897 27984 ft 406 kts 269°
2026-05-07 01:46 32.03432 -106.33205 27987 ft 405 kts 269°
2026-05-07 01:46 32.03676 -106.36515 27984 ft 405 kts 269°
2026-05-07 01:46 32.03921 -106.39824 27989 ft 405 kts 269°
2026-05-07 01:47 32.04169 -106.43132 27975 ft 406 kts 269°
2026-05-07 01:47 32.04420 -106.46446 27978 ft 405 kts 270°
2026-05-07 01:47 32.04669 -106.49750 27971 ft 405 kts 270°
2026-05-07 01:47 32.04917 -106.53066 27974 ft 405 kts 270°
2026-05-07 01:48 32.05163 -106.56377 27984 ft 406 kts 269°
2026-05-07 01:48 32.05408 -106.59692 27991 ft 406 kts 269°
2026-05-07 01:48 32.05654 -106.63008 27999 ft 406 kts 269°
2026-05-07 01:48 32.05896 -106.66322 27993 ft 406 kts 269°
2026-05-07 01:49 32.06137 -106.69639 28000 ft 406 kts 269°
2026-05-07 01:49 32.06376 -106.72955 27997 ft 406 kts 269°
2026-05-07 01:49 32.06638 -106.76274 27991 ft 407 kts 270°
2026-05-07 01:49 32.06936 -106.79597 27981 ft 408 kts 270°
2026-05-07 01:50 32.07143 -106.81796 27975 ft 408 kts 271°
2026-05-07 01:50 32.07463 -106.85122 27980 ft 408 kts 271°
2026-05-07 01:50 32.07779 -106.88445 27985 ft 408 kts 270°
2026-05-07 01:50 32.08093 -106.91821 27987 ft 409 kts 270°
2026-05-07 01:51 32.08397 -106.95150 27990 ft 409 kts 270°
2026-05-07 01:51 32.08696 -106.98481 27990 ft 409 kts 270°
2026-05-07 01:51 32.08986 -107.01777 27983 ft 409 kts 270°
2026-05-07 01:51 32.09278 -107.05111 27976 ft 409 kts 270°
2026-05-07 01:52 32.09569 -107.08448 27966 ft 409 kts 270°
2026-05-07 01:52 32.09860 -107.11786 27961 ft 409 kts 270°
2026-05-07 01:52 32.10155 -107.15127 27948 ft 410 kts 270°
2026-05-07 01:52 32.10452 -107.18469 27936 ft 410 kts 270°
2026-05-07 01:53 32.10746 -107.21814 27919 ft 410 kts 270°
2026-05-07 01:53 32.11039 -107.25159 27906 ft 410 kts 270°
2026-05-07 01:53 32.11331 -107.28505 27894 ft 410 kts 270°
2026-05-07 01:53 32.11623 -107.31859 27894 ft 411 kts 270°
2026-05-07 01:54 32.11915 -107.35209 27907 ft 411 kts 270°
2026-05-07 01:54 32.12205 -107.38557 27923 ft 411 kts 270°
2026-05-07 01:54 32.12492 -107.41912 27943 ft 411 kts 270°
2026-05-07 01:54 32.12777 -107.45263 27961 ft 411 kts 270°
2026-05-07 01:55 32.13061 -107.48617 27979 ft 411 kts 270°
2026-05-07 01:55 32.13342 -107.51971 27996 ft 411 kts 270°
2026-05-07 01:55 32.13626 -107.55328 28010 ft 411 kts 270°
2026-05-07 01:56 32.14193 -107.62042 28034 ft 411 kts 270°
2026-05-07 01:56 32.14758 -107.68760 28057 ft 412 kts 270°
2026-05-07 01:57 32.15328 -107.75478 28060 ft 412 kts 270°
2026-05-07 01:57 32.15885 -107.82208 28062 ft 412 kts 270°
2026-05-07 01:58 32.16429 -107.88934 28041 ft 412 kts 270°
2026-05-07 01:58 32.16975 -107.95667 28013 ft 412 kts 270°
2026-05-07 01:58 32.17250 -107.99040 28000 ft 412 kts 270°
2026-05-07 01:59 32.17525 -108.02403 27984 ft 413 kts 270°
2026-05-07 01:59 32.17799 -108.05780 27969 ft 413 kts 270°
2026-05-07 01:59 32.18069 -108.09151 27953 ft 413 kts 270°
2026-05-07 01:59 32.18339 -108.12524 27943 ft 413 kts 270°
2026-05-07 02:00 32.18611 -108.15893 27937 ft 413 kts 270°
2026-05-07 02:00 32.18884 -108.19280 27939 ft 413 kts 270°
2026-05-07 02:00 32.19154 -108.22658 27938 ft 414 kts 270°
2026-05-07 02:00 32.19420 -108.26039 27939 ft 414 kts 270°
2026-05-07 02:01 32.19683 -108.29420 27938 ft 414 kts 270°
2026-05-07 02:01 32.19945 -108.32805 27953 ft 414 kts 270°
2026-05-07 02:01 32.20210 -108.36193 27967 ft 414 kts 270°
2026-05-07 02:01 32.20477 -108.39583 27981 ft 415 kts 270°
2026-05-07 02:02 32.20741 -108.42973 27997 ft 415 kts 270°
2026-05-07 02:02 32.21264 -108.49766 28028 ft 415 kts 270°
2026-05-07 02:03 32.21786 -108.56555 28051 ft 416 kts 270°
2026-05-07 02:03 32.22302 -108.63369 28071 ft 416 kts 270°
2026-05-07 02:04 32.22822 -108.70184 28079 ft 417 kts 270°
2026-05-07 02:04 32.23337 -108.77007 28066 ft 418 kts 270°
2026-05-07 02:05 32.23847 -108.83845 28047 ft 418 kts 270°
2026-05-07 02:05 32.24348 -108.90689 28022 ft 419 kts 270°
2026-05-07 02:06 32.24851 -108.97551 27986 ft 420 kts 270°
2026-05-07 02:06 32.25112 -109.00983 27971 ft 420 kts 270°
2026-05-07 02:06 32.25408 -109.04427 27951 ft 421 kts 271°
2026-05-07 02:06 32.25733 -109.07866 27938 ft 422 kts 271°
2026-05-07 02:07 32.26072 -109.11308 27928 ft 422 kts 271°
2026-05-07 02:07 32.26752 -109.18211 27925 ft 423 kts 271°
2026-05-07 02:07 32.27084 -109.21665 27924 ft 423 kts 271°
2026-05-07 02:08 32.27408 -109.25121 27922 ft 424 kts 271°
2026-05-07 02:08 32.27727 -109.28582 27924 ft 424 kts 271°
2026-05-07 02:08 32.28046 -109.32048 27928 ft 424 kts 271°
2026-05-07 02:08 32.28367 -109.35517 27925 ft 425 kts 271°
2026-05-07 02:09 32.28688 -109.38987 27923 ft 425 kts 271°
2026-05-07 02:09 32.29011 -109.42463 27925 ft 426 kts 271°
2026-05-07 02:09 32.29332 -109.45948 27929 ft 426 kts 271°
2026-05-07 02:09 32.29651 -109.49434 27919 ft 427 kts 271°
2026-05-07 02:10 32.29969 -109.52924 27926 ft 427 kts 271°
2026-05-07 02:10 32.30285 -109.56414 27924 ft 427 kts 271°
2026-05-07 02:10 32.30601 -109.59907 27926 ft 428 kts 271°
2026-05-07 02:10 32.30917 -109.63403 27924 ft 428 kts 271°
2026-05-07 02:11 32.31233 -109.66903 27928 ft 429 kts 271°
2026-05-07 02:11 32.31549 -109.70413 27928 ft 429 kts 271°
2026-05-07 02:11 32.31863 -109.73927 27933 ft 430 kts 271°
2026-05-07 02:11 32.32174 -109.77447 27937 ft 430 kts 271°
2026-05-07 02:12 32.32485 -109.80969 27938 ft 431 kts 271°
2026-05-07 02:12 32.32798 -109.84497 27942 ft 432 kts 271°
2026-05-07 02:12 32.33113 -109.88027 27941 ft 432 kts 271°
2026-05-07 02:12 32.33429 -109.91563 27945 ft 433 kts 271°
2026-05-07 02:13 32.33741 -109.95103 27948 ft 433 kts 271°
2026-05-07 02:13 32.34051 -109.98646 27950 ft 434 kts 271°
2026-05-07 02:13 32.34361 -110.02197 27950 ft 434 kts 271°
2026-05-07 02:13 32.34671 -110.05753 27949 ft 435 kts 272°
2026-05-07 02:14 32.34979 -110.09308 27949 ft 435 kts 271°
2026-05-07 02:14 32.35287 -110.12874 27951 ft 436 kts 272°
2026-05-07 02:14 32.35595 -110.16444 27951 ft 437 kts 272°
2026-05-07 02:14 32.35904 -110.20021 27950 ft 437 kts 272°
2026-05-07 02:15 32.36210 -110.23603 27950 ft 438 kts 272°
2026-05-07 02:15 32.36510 -110.27140 27948 ft 438 kts 272°
2026-05-07 02:15 32.36814 -110.30729 27949 ft 439 kts 272°
2026-05-07 02:15 32.37117 -110.34322 27947 ft 439 kts 272°
2026-05-07 02:16 32.37421 -110.37918 27946 ft 440 kts 272°
2026-05-07 02:16 32.37730 -110.41570 27947 ft 440 kts 272°
2026-05-07 02:16 32.38029 -110.45125 27951 ft 441 kts 272°
2026-05-07 02:16 32.38330 -110.48739 27950 ft 441 kts 272°
2026-05-07 02:17 32.38629 -110.52353 27945 ft 442 kts 272°
2026-05-07 02:17 32.38928 -110.55959 27582 ft 433 kts 272°
2026-05-07 02:17 32.39221 -110.59462 26439 ft 426 kts 273°
2026-05-07 02:17 32.39513 -110.63007 25326 ft 426 kts 274°
2026-05-07 02:18 32.39794 -110.66440 24287 ft 425 kts 274°
2026-05-07 02:18 32.40079 -110.69916 23208 ft 424 kts 275°
2026-05-07 02:18 32.40361 -110.73350 22194 ft 410 kts 275°
2026-05-07 02:18 32.40632 -110.76644 21394 ft 400 kts 275°
2026-05-07 02:19 32.40861 -110.79475 20783 ft 398 kts 275°
2026-05-07 02:19 32.41119 -110.82723 20133 ft 395 kts 275°
2026-05-07 02:19 32.41374 -110.85944 19525 ft 391 kts 275°
2026-05-07 02:19 32.41629 -110.89161 18609 ft 396 kts 275°
2026-05-07 02:20 32.41891 -110.92425 17532 ft 401 kts 275°
2026-05-07 02:20 32.42159 -110.95728 16434 ft 405 kts 275°
2026-05-07 02:20 32.42429 -110.99064 15372 ft 409 kts 275°
2026-05-07 02:20 32.42689 -111.02303 14374 ft 411 kts 275°
2026-05-07 02:21 32.42955 -111.05679 13303 ft 413 kts 275°
2026-05-07 02:21 32.43220 -111.09068 12190 ft 413 kts 275°
2026-05-07 02:21 32.43482 -111.12445 11111 ft 412 kts 275°
2026-05-07 02:21 32.43742 -111.15811 10069 ft 409 kts 275°
2026-05-07 02:22 32.44001 -111.19153 8972 ft 405 kts 275°
2026-05-07 02:22 32.44268 -111.22445 7908 ft 399 kts 277°
2026-05-07 02:22 32.45031 -111.25556 7033 ft 390 kts 298°
2026-05-07 02:22 32.46615 -111.27982 6932 ft 359 kts 319°
2026-05-07 02:23 32.48661 -111.29441 6834 ft 333 kts 341°
2026-05-07 02:23 32.50868 -111.29842 6728 ft 312 kts
2026-05-07 02:23 32.52927 -111.29345 6576 ft 296 kts 22°
2026-05-07 02:23 32.54643 -111.28129 6436 ft 282 kts 41°
2026-05-07 02:24 32.55891 -111.26422 6306 ft 269 kts 59°
2026-05-07 02:24 32.56612 -111.24487 6185 ft 246 kts 75°
2026-05-07 02:24 32.56840 -111.22572 6072 ft 225 kts 89°
2026-05-07 02:24 32.56663 -111.20795 5966 ft 205 kts 103°
2026-05-07 02:25 32.56196 -111.19293 5876 ft 192 kts 116°
2026-05-07 02:25 32.55489 -111.17976 5784 ft 184 kts 127°
2026-05-07 02:25 32.54597 -111.16896 5700 ft 184 kts 140°
2026-05-07 02:25 32.53528 -111.16055 5599 ft 185 kts 152°
2026-05-07 02:26 32.52328 -111.15494 5519 ft 186 kts 164°
2026-05-07 02:26 32.51047 -111.15241 5463 ft 187 kts 175°
2026-05-07 02:26 32.49778 -111.15303 5352 ft 171 kts 188°
2026-05-07 02:26 32.48695 -111.15607 5276 ft 153 kts 198°
2026-05-07 02:27 32.47707 -111.15967 5177 ft 148 kts 202°
2026-05-07 02:27 32.46938 -111.16714 5067 ft 143 kts 241°
2026-05-07 02:27 32.46715 -111.17817 4805 ft 136 kts 281°
2026-05-07 02:27 32.46969 -111.18868 4548 ft 132 kts 291°
2026-05-07 02:28 32.47200 -111.19925 4296 ft 133 kts 282°
2026-05-07 02:28 32.47310 -111.21008 4077 ft 131 kts 281°
2026-05-07 02:28 32.47431 -111.22076 3815 ft 130 kts 281°
2026-05-07 02:28 32.47557 -111.23140 3514 ft 131 kts 282°
2026-05-07 02:29 32.47682 -111.24208 3344 ft 131 kts 282°
2026-05-07 02:29 32.47792 -111.25279 3243 ft 130 kts 280°
2026-05-07 02:29 32.47901 -111.26346 3012 ft 131 kts 279°
2026-05-07 02:29 32.48008 -111.27410 2792 ft 129 kts 279°
2026-05-07 02:30 32.48087 -111.28118 2684 ft 128 kts 280°
2026-05-07 02:30 32.48422 -111.29442 2559 ft 127 kts 298°
2026-05-07 02:30 32.48790 -111.29992 2415 ft 126 kts 318°
2026-05-07 02:30 32.49419 -111.30689 2236 ft 125 kts 316°
2026-05-07 02:31 32.50045 -111.31431 2039 ft 126 kts 313°
2026-05-07 02:31 32.50658 -111.32151 1892 ft 116 kts 315°
2026-05-07 02:31 32.51095 -111.32664 1894 ft 60 kts 314°
2026-05-07 02:31 32.51277 -111.32878 1896 ft 17 kts 316°
2026-05-07 02:32 32.51347 -111.32899 1896 ft 11 kts 37°
2026-05-07 02:32 32.51405 -111.32830 1890 ft 8 kts 49°
2026-05-07 02:32 32.51377 -111.32760 1886 ft 13 kts 135°
2026-05-07 02:32 32.51298 -111.32669 1897 ft 18 kts 135°
2026-05-07 02:33 32.51193 -111.32543 1895 ft 25 kts 134°
2026-05-07 02:33 32.51061 -111.32382 1896 ft 29 kts 134°
2026-05-07 02:33 32.50905 -111.32198 1899 ft 31 kts 135°
2026-05-07 02:33 32.50837 -111.32074 1901 ft 9 kts 75°
2026-05-07 02:34 32.50856 -111.32050 1896 ft 3 kts 45°
2026-05-07 02:34 32.50858 -111.32048 1901 ft 0 kts 45°